Location: Beaurecueil
(43.5122°N, 5.5450°E)
Time: 07:14:35
(UTC+00:00)

Cosmos 1939 Rocket - Pass Details

Date: 19 January 2021
Orbit: 531 x 585 km, 97.4° (Epoch: 04 March)

Event Time Altitude Azimuth Distance (km) Brightness Sun altitude
Rises 17:40:02 0° 169° (S) 2,794 6.5 -12.2°
Reaches altitude 10° 17:42:12 10° 171° (S) 1,897 5.6 -12.6°
Maximum altitude 17:46:19 78° 257° (WSW) 599 3.1 -13.3°
Drops below altitude 10° 17:50:26 10° 345° (NNW) 1,895 5.6 -14.0°
Sets 17:52:36 0° 347° (NNW) 2,791 6.4 -14.4°
